Location: Newark
(42.9277°N, 71.8621°W)
Time: 20:13:05
(UTC+00:00)

Transit 4A - Pass Details

Date: 17 May 2021
Orbit: 872 x 973 km, 66.8° (Epoch: 15 June)

Event Time Altitude Azimuth Distance (km) Brightness Sun altitude
Rises 06:51:24 0° 329° (NNW) 3,487 11.3 -21.1°
Reaches altitude 10° 06:53:54 10° 329° (NNW) 2,537 10.5 -20.9°
Maximum altitude 06:59:46 88° 59° (ENE) 878 7.7 -20.3°
Drops below altitude 10° 07:05:35 10° 150° (SSE) 2,515 9.9 -19.7°
Enters shadow 07:07:38 - 150° (SSE) 3,294 10.5 -19.4°
